Regional Weather Roundup
Issued by NWS Sioux Falls, SD

Home | Current Version | Previous Version | Graphics & Text | Print | Product List | Glossary On
Versions: 1 2 3 4 5 6 7 8 9 10 11 12 13 14 15 16 17 18 19 20 21 22 23 24 25 26 27 28 29 30 31 32 33 34 35 36 37 38 39 40 41 42 43 44 45 46 47 48 49 50
462
ASUS43 KFSD 230510
RWRFSD

WEATHER ROUNDUP FOR SE SOUTH DAKOTA/SW MINNESOTA/NW IOWA
NATIONAL WEATHER SERVICE SIOUX FALLS SD
1100 PM CST THU FEB 22 2018

NOTE: "FAIR" INDICATES FEW OR NO CLOUDS BELOW 12,000 FEET WITH NO
SIGNIFICANT WEATHER AND OR OBSTRUCTIONS TO VISIBILITY.


SDZ038>040-050-052>070-230600-
SOUTHEAST SOUTH DAKOTA

CITY           SKY/WX    TMP DP  RH WIND       PRES   REMARKS
BROOKINGS      FLURRIES  22  19  89 SE8       30.12S WCI  12
CHAMBERLAIN    PTCLDY    17  17  99 CALM      30.13F FOG
HURON          CLOUDY    21  20  96 W5        30.15F WCI  15
MADISON        FLURRIES  19  19 100 CALM      30.12S
MITCHELL       LGT SNOW  22  21  96 CALM      30.16S FOG
SIOUX FALLS    CLOUDY    25  23  92 S5        30.13F WCI  19
WINNER         CLOUDY    22  18  85 W3        30.11F
YANKTON        LGT SNOW  24  23  96 SW6       30.16F FOG     WCI  17
$$

MNZ071-072-080-081-089-090-097-098-230600-
SOUTHWEST MINNESOTA

CITY           SKY/WX    TMP DP  RH WIND       PRES   REMARKS
FAIRMONT       MIX PCPN  30  29  96 SE7       30.15F FOG     WCI  23
JACKSON        LGT SNOW  28  27  93 S3        30.12F
LUVERNE        LGT SNOW  25  23  93 S3        30.13F
MARSHALL       FLURRIES  24  22  91 SE7       30.15S WCI  16
MONTEVIDEO     LGT SNOW  23  23 100 SE14      30.16F WCI  11
PIPESTONE      LGT SNOW  23  21  93 S5        30.11F WCI  17
REDWOOD FALLS  LGT SNOW  24  23  96 E8        30.16F FOG     WCI  15
TRACY          LGT SNOW  25  24  98 SE3       30.12F
WORTHINGTON    LGT SNOW  25  25 100 S6        30.12F FOG     WCI  18
$$

IAZ001>003-012>014-020>022-031-032-NEZ013-014-SDZ071-230600-
NORTHWEST IOWA

CITY           SKY/WX    TMP DP  RH WIND       PRES   REMARKS
CHEROKEE       LGT SNOW  28  28 100 CALM      30.15F
DENISON        LGT SNOW  30  30 100 SW6       30.17S WCI  24
ESTHERVILLE    LGT SNOW  29  29 100 S6        30.13F VSB 1   WCI  23
LE MARS        CLOUDY    27  27 100 CALM      30.15F FOG
ORANGE CITY    LGT SNOW  27  27 100 SW3       30.13F
SHELDON        CLOUDY    27  27 100 S6        30.12F WCI  20
SIOUX CITY     LGT SNOW  26  26 100 SW3       30.16F FOG
SPENCER        LGT SNOW  29  27  92 SW3       30.13F FOG
STORM LAKE     LGT SNOW  28  28 100 SW5       30.13F VSB 1   WCI  23
$$

ABBREVIATIONS USED IN REMARKS
   TC - TEMPERATURE IN CELSIUS
  WCI - WIND CHILL INDEX
   HX - HEAT INDEX
  VSB - VISIBILITY





USA.gov is the U.S. government's official web portal to all federal, state and local government web resources and services.